QPF
0.00 0.00 0.00 0.00 0.00 0.00 0.00 0.00 0.01 0.01 0.00 0.01 0.01 0.01 0.00 0.01 0.01 0.01 0.00 0.00 0.00 0.00 0.00 0.00 0.00 0.00 0.01 0.01 0.02 0.01 0.01 0.02 0.01 0.01 0.00 0.00 0.01 0.01 0.01 0.01 0.01 0.01 0.01 0.01
0.00 0.00 0.00 0.00 0.00 0.01 0.00 0.01 0.01 0.02 0.01 0.01 0.01 0.01 0.00 0.01 0.01 0.01 0.01 0.00 0.00 0.00 0.00 0.00 0.00 0.00 0.01 0.01 0.01 0.01 0.01 0.01 0.01 0.01 0.01 0.00 0.00 0.00 0.00 0.00 0.01 0.01 0.01 0.01
0.00 0.00 0.00 0.00 0.00 0.00 0.00 0.01 0.01 0.02 0.02 0.01 0.01 0.00 0.00 0.00 0.00 0.00 0.00 0.00 0.00 0.00 0.00 0.00 0.01 0.01 0.01 0.01 0.01 0.01 0.01 0.01 0.01 0.01 0.01 0.01 0.00 0.00 0.00 0.01 0.01 0.01 0.01 0.01
0.00 0.00 0.00 0.00 0.00 0.00 0.00 0.01 0.01 0.01 0.02 0.01 0.00 0.01 0.00 0.00 0.00 0.00 0.00 0.00 0.00 0.00 0.00 0.00 0.00 0.00 0.00 0.00 0.01 0.01 0.01 0.02 0.02 0.02 0.02 0.01 0.01 0.01 0.01 0.01 0.01 0.01 0.02 0.02
0.00 0.00 0.00 0.00 0.00 0.00 0.00 0.00 0.01 0.02 0.02 0.01 0.00 0.00 0.00 0.00 0.01 0.00 0.00 0.00 0.00 0.00 0.00 0.00 0.00 0.00 0.00 0.00 0.01 0.01 0.01 0.02 0.02 0.02 0.02 0.02 0.01 0.02 0.02 0.02 0.01 0.01 0.02 0.02
0.00 0.00 0.00 0.00 0.00 0.00 0.00 0.00 0.01 0.02 0.02 0.01 0.00 0.00 0.00 0.00 0.00 0.00 0.00 0.00 0.00 0.00 0.00 0.00 0.00 0.00 0.00 0.00 0.01 0.01 0.01 0.02 0.02 0.02 0.02 0.03 0.03 0.03 0.03 0.03 0.02 0.01 0.01 0.01
0.00 0.00 0.00 0.00 0.00 0.00 0.00 0.01 0.02 0.02 0.02 0.01 0.00 0.00 0.00 0.00 0.00 0.00 0.00 0.00 0.00 0.00 0.00 0.00 0.00 0.00 0.00 0.00 0.01 0.01 0.02 0.03 0.03 0.02 0.02 0.02 0.03 0.03 0.03 0.03 0.02 0.02 0.01 0.01
0.00 0.00 0.00 0.00 0.00 0.00 0.00 0.01 0.01 0.01 0.01 0.01 0.00 0.00 0.00 0.00 0.00 0.00 0.00 0.00 0.00 0.00 0.00 0.00 0.00 0.00 0.00 0.00 0.01 0.02 0.03 0.02 0.02 0.02 0.02 0.02 0.02 0.03 0.03 0.03 0.02 0.02 0.01 0.01
0.00 0.00 0.00 0.00 0.00 0.01 0.00 0.00 0.01 0.01 0.00 0.00 0.00 0.00 0.00 0.00 0.00 0.00 0.00 0.00 0.00 0.00 0.00 0.00 0.00 0.00 0.00 0.00 0.01 0.01 0.03 0.02 0.01 0.01 0.02 0.02 0.02 0.02 0.02 0.02 0.02 0.01 0.01 0.01
0.01 0.00 0.00 0.00 0.01 0.01 0.00 0.00 0.00 0.00 0.00 0.00 0.00 0.00 0.00 0.00 0.00 0.00 0.00 0.00 0.00 0.01 0.01 0.00 0.00 0.00 0.00 0.01 0.01 0.01 0.01 0.02 0.03 0.02 0.02 0.02 0.02 0.02 0.02 0.02 0.02 0.01 0.01 0.01
0.01 0.01 0.00 0.00 0.00 0.00 0.00 0.00 0.00 0.00 0.00 0.00 0.00 0.00 0.00 0.00 0.00 0.00 0.00 0.00 0.00 0.00 0.01 0.01 0.00 0.00 0.00 0.01 0.01 0.01 0.01 0.02 0.02 0.02 0.02 0.01 0.02 0.02 0.02 0.02 0.02 0.02 0.01 0.02
0.01 0.01 0.01 0.00 0.00 0.00 0.00 0.00 0.00 0.00 0.00 0.00 0.00 0.00 0.00 0.00 0.00 0.00 0.00 0.00 0.00 0.00 0.00 0.01 0.01 0.01 0.01 0.02 0.01 0.01 0.01 0.02 0.01 0.01 0.01 0.01 0.02 0.02 0.02 0.02 0.01 0.02 0.02 0.02
0.01 0.01 0.01 0.00 0.00 0.00 0.00 0.00 0.00 0.01 0.01 0.00 0.00 0.00 0.00 0.00 0.00 0.00 0.00 0.00 0.00 0.00 0.00 0.01 0.03 0.05 0.04 0.03 0.03 0.03 0.02 0.01 0.01 0.01 0.01 0.01 0.01 0.01 0.01 0.01 0.01 0.01 0.01 0.02
0.01 0.01 0.01 0.01 0.00 0.00 0.00 0.00 0.00 0.00 0.01 0.01 0.00 0.00 0.00 0.00 0.00 0.00 0.00 0.00 0.00 0.00 0.00 0.01 0.02 0.03 0.04 0.04 0.03 0.03 0.02 0.01 0.01 0.01 0.01 0.01 0.01 0.01 0.01 0.00 0.01 0.00 0.01 0.01
0.01 0.01 0.00 0.00 0.00 0.00 0.00 0.00 0.00 0.00 0.00 0.01 0.00 0.00 0.00 0.00 0.01 0.01 0.01 0.01 0.01 0.01 0.01 0.01 0.02 0.02 0.02 0.01 0.01 0.01 0.01 0.01 0.01 0.01 0.01 0.01 0.01 0.01 0.01 0.00 0.00 0.01 0.00 0.01
0.01 0.01 0.00 0.00 0.00 0.00 0.00 0.00 0.00 0.00 0.00 0.00 0.00 0.00 0.00 0.01 0.02 0.02 0.01 0.01 0.01 0.01 0.01 0.01 0.01 0.01 0.01 0.01 0.01 0.01 0.02 0.02 0.02 0.02 0.01 0.01 0.02 0.02 0.01 0.00 0.00 0.01 0.01 0.01
0.00 0.00 0.00 0.00 0.00 0.00 0.00 0.00 0.00 0.00 0.00 0.00 0.00 0.00 0.01 0.01 0.02 0.03 0.02 0.01 0.01 0.01 0.01 0.01 0.01 0.01 0.01 0.01 0.01 0.01 0.02 0.02 0.03 0.02 0.02 0.02 0.02 0.02 0.01 0.00 0.01 0.01 0.01 0.01
0.00 0.00 0.00 0.00 0.00 0.00 0.00 0.00 0.00 0.00 0.00 0.00 0.00 0.01 0.01 0.01 0.02 0.03 0.03 0.02 0.02 0.02 0.02 0.01 0.01 0.01 0.01 0.01 0.01 0.01 0.01 0.02 0.02 0.03 0.03 0.04 0.03 0.03 0.01 0.01 0.01 0.01 0.01 0.01
0.00 0.00 0.00 0.01 0.01 0.00 0.00 0.00 0.00 0.00 0.00 0.00 0.00 0.01 0.01 0.01 0.02 0.02 0.03 0.03 0.03 0.03 0.02 0.02 0.01 0.01 0.01 0.01 0.01 0.01 0.01 0.02 0.01 0.02 0.03 0.03 0.03 0.03 0.02 0.01 0.00 0.01 0.01 0.01
0.00 0.00 0.01 0.01 0.01 0.00 0.00 0.00 0.00 0.00 0.00 0.00 0.01 0.01 0.01 0.01 0.01 0.02 0.02 0.02 0.03 0.03 0.04 0.04 0.03 0.02 0.01 0.01 0.01 0.01 0.02 0.03 0.03 0.02 0.02 0.02 0.02 0.03 0.02 0.01 0.01 0.01 0.01 0.01
0.00 0.00 0.00 0.01 0.01 0.00 0.00 0.00 0.00 0.00 0.00 0.00 0.01 0.01 0.01 0.01 0.01 0.01 0.01 0.01 0.01 0.02 0.02 0.02 0.02 0.02 0.02 0.01 0.01 0.02 0.02 0.03 0.03 0.02 0.02 0.02 0.03 0.03 0.03 0.02 0.02 0.02 0.02 0.02
0.00 0.00 0.00 0.00 0.00 0.00 0.00 0.00 0.00 0.00 0.00 0.00 0.00 0.00 0.00 0.00 0.00 0.00 0.00 0.00 0.01 0.01 0.01 0.02 0.03 0.04 0.03 0.01 0.01 0.01 0.01 0.02 0.04 0.04 0.04 0.03 0.03 0.05 0.05 0.04 0.02 0.02 0.03 0.03
0.00 0.00 0.00 0.00 0.00 0.00 0.00 0.00 0.00 0.00 0.00 0.00 0.00 0.00 0.00 0.00 0.00 0.00 0.00 0.00 0.00 0.00 0.01 0.02 0.04 0.05 0.03 0.02 0.01 0.01 0.01 0.02 0.04 0.05 0.04 0.04 0.04 0.05 0.06 0.04 0.03 0.03 0.03 0.03
0.00 0.00 0.00 0.00 0.00 0.00 0.00 0.00 0.00 0.00 0.00 0.00 0.00 0.00 0.00 0.00 0.00 0.00 0.00 0.00 0.00 0.00 0.00 0.01 0.03 0.05 0.03 0.02 0.02 0.01 0.01 0.01 0.03 0.06 0.05 0.04 0.03 0.04 0.05 0.04 0.04 0.03 0.02 0.02
0.00 0.00 0.01 0.01 0.00 0.00 0.00 0.00 0.00 0.00 0.00 0.00 0.00 0.00 0.00 0.00 0.00 0.00 0.00 0.00 0.00 0.00 0.00 0.01 0.02 0.04 0.03 0.02 0.02 0.02 0.01 0.01 0.02 0.05 0.05 0.05 0.03 0.03 0.05 0.05 0.04 0.04 0.04 0.04
0.00 0.00 0.00 0.00 0.00 0.00 0.00 0.00 0.00 0.00 0.00 0.00 0.00 0.00 0.00 0.00 0.00 0.00 0.00 0.00 0.00 0.00 0.00 0.01 0.03 0.03 0.02 0.02 0.02 0.02 0.01 0.01 0.02 0.03 0.05 0.06 0.03 0.03 0.04 0.04 0.04 0.04 0.05 0.05
MSLP
1016.08 1016.90 1017.61 1018.19 1018.64 1018.96 1019.19 1019.35 1019.45 1019.51 1019.55 1019.55 1019.54 1019.50 1019.46 1019.41 1019.37 1019.32 1019.28 1019.22 1019.14 1019.02 1018.86 1018.67 1018.47 1018.29 1018.17 1018.12 1018.18 1018.36 1018.63 1018.98 1019.37 1019.75 1020.08 1020.34 1020.51 1020.59 1020.61 1020.57 1020.51 1020.46 1020.45 1020.49
1016.96 1017.62 1018.16 1018.57 1018.87 1019.11 1019.31 1019.49 1019.65 1019.79 1019.89 1019.93 1019.90 1019.80 1019.65 1019.46 1019.27 1019.11 1018.98 1018.88 1018.81 1018.75 1018.68 1018.59 1018.48 1018.37 1018.28 1018.26 1018.31 1018.47 1018.74 1019.09 1019.50 1019.92 1020.31 1020.64 1020.87 1021.00 1021.03 1021.00 1020.94 1020.87 1020.83 1020.84
1017.64 1018.12 1018.47 1018.71 1018.90 1019.07 1019.28 1019.51 1019.77 1020.01 1020.18 1020.26 1020.20 1020.02 1019.73 1019.38 1019.02 1018.71 1018.48 1018.34 1018.29 1018.29 1018.32 1018.35 1018.35 1018.33 1018.30 1018.30 1018.36 1018.51 1018.76 1019.11 1019.54 1020.00 1020.44 1020.83 1021.12 1021.31 1021.40 1021.40 1021.35 1021.28 1021.23 1021.22
1018.12 1018.40 1018.57 1018.67 1018.77 1018.92 1019.17 1019.49 1019.86 1020.21 1020.47 1020.57 1020.47 1020.18 1019.74 1019.20 1018.66 1018.19 1017.84 1017.65 1017.60 1017.67 1017.81 1017.96 1018.09 1018.18 1018.23 1018.27 1018.35 1018.49 1018.72 1019.06 1019.49 1019.97 1020.46 1020.90 1021.26 1021.52 1021.66 1021.71 1021.70 1021.65 1021.61 1021.60
1018.43 1018.53 1018.54 1018.53 1018.59 1018.76 1019.08 1019.52 1020.02 1020.48 1020.80 1020.91 1020.76 1020.35 1019.73 1018.99 1018.24 1017.60 1017.12 1016.87 1016.82 1016.95 1017.20 1017.48 1017.74 1017.94 1018.08 1018.18 1018.28 1018.41 1018.63 1018.96 1019.38 1019.86 1020.37 1020.86 1021.28 1021.60 1021.82 1021.93 1021.96 1021.96 1021.94 1021.95
1018.67 1018.61 1018.50 1018.42 1018.47 1018.70 1019.11 1019.67 1020.29 1020.85 1021.22 1021.31 1021.07 1020.52 1019.71 1018.77 1017.82 1017.00 1016.40 1016.07 1016.03 1016.21 1016.55 1016.95 1017.34 1017.65 1017.88 1018.04 1018.16 1018.30 1018.50 1018.80 1019.20 1019.68 1020.20 1020.72 1021.18 1021.56 1021.84 1022.01 1022.11 1022.16 1022.19 1022.23
1018.94 1018.75 1018.55 1018.45 1018.51 1018.80 1019.31 1019.98 1020.69 1021.30 1021.68 1021.73 1021.39 1020.69 1019.70 1018.56 1017.43 1016.44 1015.73 1015.34 1015.27 1015.50 1015.91 1016.41 1016.91 1017.33 1017.65 1017.86 1018.01 1018.15 1018.34 1018.61 1018.98 1019.44 1019.95 1020.48 1020.97 1021.40 1021.73 1021.98 1022.14 1022.26 1022.35 1022.44
1019.31 1019.03 1018.79 1018.67 1018.77 1019.12 1019.70 1020.43 1021.19 1021.81 1022.15 1022.12 1021.67 1020.82 1019.66 1018.35 1017.06 1015.95 1015.14 1014.69 1014.62 1014.86 1015.33 1015.90 1016.48 1016.98 1017.37 1017.63 1017.81 1017.96 1018.13 1018.38 1018.71 1019.14 1019.64 1020.16 1020.67 1021.13 1021.51 1021.82 1022.05 1022.24 1022.40 1022.56
1019.81 1019.48 1019.22 1019.11 1019.24 1019.62 1020.23 1020.97 1021.70 1022.27 1022.54 1022.40 1021.82 1020.84 1019.56 1018.13 1016.73 1015.53 1014.66 1014.17 1014.08 1014.33 1014.82 1015.44 1016.06 1016.61 1017.04 1017.34 1017.54 1017.70 1017.87 1018.10 1018.41 1018.81 1019.28 1019.80 1020.31 1020.79 1021.21 1021.57 1021.87 1022.13 1022.36 1022.59
1020.41 1020.07 1019.81 1019.72 1019.85 1020.23 1020.81 1021.50 1022.15 1022.61 1022.76 1022.50 1021.80 1020.72 1019.35 1017.86 1016.42 1015.19 1014.29 1013.78 1013.68 1013.91 1014.39 1015.01 1015.63 1016.19 1016.64 1016.96 1017.19 1017.36 1017.54 1017.76 1018.06 1018.45 1018.91 1019.40 1019.91 1020.40 1020.85 1021.25 1021.60 1021.93 1022.24 1022.54
1021.05 1020.72 1020.48 1020.40 1020.52 1020.86 1021.35 1021.92 1022.43 1022.74 1022.74 1022.35 1021.56 1020.43 1019.04 1017.55 1016.13 1014.93 1014.05 1013.54 1013.41 1013.61 1014.04 1014.60 1015.19 1015.72 1016.15 1016.48 1016.72 1016.92 1017.12 1017.36 1017.67 1018.06 1018.51 1019.00 1019.50 1020.00 1020.46 1020.89 1021.29 1021.67 1022.04 1022.42
1021.63 1021.35 1021.14 1021.06 1021.15 1021.40 1021.77 1022.18 1022.50 1022.63 1022.48 1021.98 1021.13 1019.98 1018.64 1017.22 1015.89 1014.76 1013.93 1013.43 1013.28 1013.41 1013.76 1014.22 1014.72 1015.18 1015.57 1015.88 1016.13 1016.36 1016.60 1016.89 1017.23 1017.64 1018.10 1018.59 1019.10 1019.59 1020.06 1020.51 1020.94 1021.37 1021.79 1022.22
1022.10 1021.88 1021.71 1021.63 1021.66 1021.81 1022.02 1022.24 1022.36 1022.31 1022.01 1021.42 1020.56 1019.45 1018.20 1016.92 1015.71 1014.70 1013.93 1013.45 1013.26 1013.30 1013.53 1013.85 1014.22 1014.57 1014.89 1015.17 1015.42 1015.69 1015.98 1016.32 1016.72 1017.18 1017.67 1018.18 1018.68 1019.18 1019.66 1020.12 1020.57 1021.02 1021.48 1021.96
1022.44 1022.29 1022.15 1022.06 1022.03 1022.06 1022.10 1022.13 1022.06 1021.83 1021.41 1020.77 1019.92 1018.90 1017.79 1016.67 1015.63 1014.74 1014.06 1013.59 1013.34 1013.27 1013.33 1013.49 1013.68 1013.90 1014.11 1014.34 1014.60 1014.90 1015.25 1015.66 1016.13 1016.65 1017.18 1017.72 1018.24 1018.74 1019.22 1019.69 1020.16 1020.63 1021.12 1021.62
1022.68 1022.59 1022.48 1022.37 1022.27 1022.17 1022.05 1021.89 1021.64 1021.28 1020.77 1020.10 1019.31 1018.41 1017.46 1016.52 1015.66 1014.90 1014.28 1013.81 1013.48 1013.27 1013.15 1013.11 1013.11 1013.16 1013.27 1013.43 1013.67 1014.00 1014.41 1014.90 1015.45 1016.03 1016.62 1017.19 1017.74 1018.25 1018.74 1019.22 1019.69 1020.18 1020.69 1021.22
1022.88 1022.83 1022.72 1022.58 1022.40 1022.18 1021.92 1021.60 1021.21 1020.73 1020.16 1019.51 1018.78 1018.02 1017.24 1016.48 1015.77 1015.12 1014.56 1014.06 1013.64 1013.28 1012.97 1012.71 1012.51 1012.38 1012.36 1012.44 1012.66 1013.00 1013.46 1014.02 1014.65 1015.30 1015.94 1016.56 1017.14 1017.68 1018.18 1018.67 1019.16 1019.66 1020.19 1020.75
1023.11 1023.06 1022.93 1022.74 1022.47 1022.14 1021.76 1021.30 1020.80 1020.24 1019.64 1019.02 1018.38 1017.74 1017.11 1016.50 1015.93 1015.37 1014.83 1014.30 1013.77 1013.24 1012.74 1012.27 1011.87 1011.57 1011.41 1011.41 1011.58 1011.92 1012.42 1013.04 1013.72 1014.43 1015.14 1015.81 1016.42 1016.99 1017.51 1018.02 1018.54 1019.06 1019.62 1020.19
1023.41 1023.32 1023.14 1022.87 1022.52 1022.09 1021.59 1021.04 1020.45 1019.84 1019.23 1018.64 1018.07 1017.54 1017.03 1016.55 1016.06 1015.56 1015.02 1014.44 1013.80 1013.12 1012.43 1011.77 1011.18 1010.73 1010.43 1010.34 1010.46 1010.79 1011.30 1011.94 1012.68 1013.44 1014.19 1014.91 1015.57 1016.17 1016.74 1017.28 1017.82 1018.38 1018.96 1019.56
1023.77 1023.60 1023.34 1022.98 1022.54 1022.01 1021.42 1020.79 1020.14 1019.50 1018.89 1018.33 1017.82 1017.37 1016.95 1016.54 1016.11 1015.63 1015.08 1014.43 1013.69 1012.88 1012.04 1011.22 1010.48 1009.87 1009.46 1009.28 1009.34 1009.63 1010.13 1010.78 1011.53 1012.33 1013.12 1013.88 1014.59 1015.24 1015.85 1016.44 1017.02 1017.61 1018.21 1018.83
1024.13 1023.85 1023.48 1023.02 1022.48 1021.86 1021.20 1020.52 1019.83 1019.18 1018.57 1018.03 1017.56 1017.15 1016.78 1016.41 1016.01 1015.53 1014.94 1014.24 1013.43 1012.52 1011.56 1010.62 1009.75 1009.04 1008.52 1008.25 1008.24 1008.48 1008.94 1009.58 1010.33 1011.14 1011.96 1012.76 1013.51 1014.22 1014.88 1015.52 1016.14 1016.77 1017.40 1018.04
1024.39 1023.98 1023.49 1022.92 1022.29 1021.60 1020.89 1020.17 1019.46 1018.80 1018.20 1017.67 1017.22 1016.83 1016.47 1016.11 1015.70 1015.21 1014.60 1013.86 1013.00 1012.03 1011.01 1009.99 1009.04 1008.24 1007.65 1007.30 1007.21 1007.38 1007.79 1008.38 1009.11 1009.92 1010.75 1011.58 1012.38 1013.14 1013.86 1014.54 1015.21 1015.87 1016.52 1017.17
1024.44 1023.90 1023.28 1022.61 1021.90 1021.17 1020.42 1019.68 1018.97 1018.31 1017.71 1017.19 1016.74 1016.34 1015.97 1015.60 1015.18 1014.68 1014.06 1013.31 1012.43 1011.45 1010.40 1009.35 1008.37 1007.52 1006.86 1006.44 1006.27 1006.37 1006.70 1007.24 1007.93 1008.71 1009.55 1010.40 1011.24 1012.05 1012.82 1013.55 1014.25 1014.93 1015.60 1016.24
1024.20 1023.52 1022.80 1022.05 1021.29 1020.52 1019.76 1019.02 1018.32 1017.66 1017.07 1016.54 1016.08 1015.67 1015.28 1014.90 1014.46 1013.96 1013.34 1012.61 1011.76 1010.80 1009.78 1008.74 1007.75 1006.88 1006.18 1005.70 1005.46 1005.47 1005.72 1006.18 1006.82 1007.57 1008.40 1009.26 1010.13 1010.97 1011.78 1012.56 1013.29 1013.99 1014.65 1015.29
1023.62 1022.83 1022.03 1021.23 1020.43 1019.66 1018.90 1018.18 1017.50 1016.86 1016.27 1015.73 1015.25 1014.81 1014.41 1014.00 1013.56 1013.07 1012.48 1011.80 1011.00 1010.10 1009.14 1008.16 1007.20 1006.34 1005.61 1005.08 1004.77 1004.69 1004.86 1005.24 1005.81 1006.52 1007.32 1008.19 1009.07 1009.95 1010.80 1011.60 1012.35 1013.05 1013.71 1014.33
1022.72 1021.86 1021.01 1020.18 1019.38 1018.62 1017.89 1017.20 1016.54 1015.91 1015.32 1014.77 1014.26 1013.80 1013.37 1012.95 1012.52 1012.04 1011.51 1010.89 1010.18 1009.38 1008.51 1007.60 1006.70 1005.86 1005.13 1004.56 1004.19 1004.04 1004.12 1004.42 1004.91 1005.57 1006.35 1007.21 1008.10 1009.00 1009.87 1010.69 1011.45 1012.15 1012.80 1013.40
1021.59 1020.69 1019.82 1018.99 1018.22 1017.49 1016.80 1016.13 1015.49 1014.87 1014.27 1013.70 1013.16 1012.66 1012.20 1011.77 1011.35 1010.92 1010.44 1009.91 1009.31 1008.62 1007.86 1007.05 1006.22 1005.42 1004.71 1004.12 1003.70 1003.48 1003.48 1003.71 1004.14 1004.74 1005.49 1006.33 1007.22 1008.13 1009.01 1009.84 1010.61 1011.31 1011.94 1012.52
Thickness
5730 5717 5707 5710 5713 5712 5705 5698 5692 5697 5707 5701 5695 5695 5700 5703 5701 5700 5699 5699 5700 5702 5706 5708 5709 5709 5708 5707 5705 5703 5701 5698 5697 5694 5691 5688 5686 5685 5683 5683 5681 5681 5680 5678
5713 5708 5718 5720 5717 5710 5703 5693 5690 5695 5703 5698 5690 5691 5698 5699 5699 5700 5699 5698 5698 5698 5700 5702 5703 5703 5703 5702 5701 5699 5697 5695 5693 5691 5688 5685 5682 5680 5679 5677 5676 5676 5674 5673
5708 5713 5722 5717 5710 5703 5699 5693 5690 5689 5693 5693 5688 5684 5690 5696 5698 5698 5698 5697 5697 5697 5696 5696 5696 5697 5697 5696 5695 5695 5693 5691 5689 5686 5683 5680 5677 5675 5672 5671 5670 5670 5669 5668
5709 5715 5716 5711 5706 5702 5692 5702 5697 5691 5680 5672 5679 5665 5682 5687 5688 5692 5692 5692 5692 5693 5693 5692 5692 5691 5691 5691 5691 5690 5687 5685 5684 5681 5678 5675 5671 5667 5666 5665 5665 5664 5663 5662
5705 5711 5710 5705 5707 5706 5700 5702 5694 5686 5676 5667 5669 5662 5671 5680 5681 5686 5688 5689 5690 5690 5689 5688 5688 5687 5687 5686 5685 5684 5682 5680 5677 5675 5673 5670 5666 5663 5661 5660 5659 5658 5657 5657
5705 5713 5712 5709 5710 5708 5701 5691 5681 5671 5664 5656 5665 5657 5663 5672 5681 5686 5688 5687 5687 5686 5685 5684 5683 5682 5680 5680 5679 5677 5675 5673 5671 5669 5667 5664 5660 5657 5655 5653 5652 5651 5650 5650
5693 5701 5708 5710 5700 5698 5691 5672 5655 5652 5643 5648 5662 5657 5664 5683 5686 5687 5685 5684 5683 5682 5679 5677 5676 5674 5673 5672 5671 5670 5668 5665 5663 5661 5659 5657 5654 5652 5649 5647 5645 5644 5642 5642
5676 5676 5695 5701 5696 5687 5682 5673 5651 5642 5638 5643 5655 5652 5670 5684 5685 5686 5685 5682 5679 5676 5674 5672 5670 5668 5667 5665 5664 5663 5661 5658 5656 5654 5652 5650 5648 5645 5643 5641 5639 5638 5637 5636
5670 5672 5692 5697 5698 5689 5676 5667 5666 5648 5642 5637 5643 5654 5671 5680 5678 5678 5676 5675 5672 5671 5669 5667 5664 5662 5661 5659 5658 5656 5654 5652 5650 5649 5646 5644 5641 5638 5636 5635 5633 5632 5631 5630
5676 5669 5680 5687 5690 5685 5679 5666 5651 5642 5632 5628 5638 5645 5654 5668 5669 5669 5668 5667 5666 5665 5663 5660 5658 5656 5654 5653 5652 5650 5648 5646 5644 5643 5641 5639 5635 5632 5630 5628 5626 5626 5625 5624
5675 5663 5666 5671 5671 5669 5665 5659 5648 5636 5633 5623 5623 5641 5668 5668 5669 5666 5665 5664 5661 5659 5657 5654 5652 5650 5648 5647 5645 5643 5641 5639 5637 5636 5634 5632 5629 5626 5624 5622 5621 5619 5618 5617
5666 5654 5648 5658 5670 5672 5667 5659 5646 5635 5628 5621 5618 5638 5671 5668 5666 5664 5661 5659 5657 5654 5651 5648 5646 5643 5641 5640 5638 5636 5634 5632 5631 5630 5628 5626 5623 5620 5618 5616 5614 5613 5611 5610
5661 5648 5638 5643 5650 5658 5657 5654 5648 5636 5624 5614 5615 5638 5664 5661 5660 5659 5656 5653 5650 5647 5644 5641 5637 5635 5634 5633 5631 5629 5627 5625 5624 5622 5621 5619 5617 5615 5612 5610 5608 5607 5605 5604
5660 5643 5638 5636 5641 5646 5647 5648 5643 5634 5620 5616 5623 5638 5653 5653 5652 5652 5650 5647 5644 5641 5638 5634 5630 5628 5627 5626 5624 5622 5620 5618 5617 5615 5613 5612 5611 5609 5607 5605 5602 5600 5599 5597
5652 5639 5639 5641 5645 5644 5643 5644 5641 5634 5631 5625 5633 5635 5647 5648 5648 5647 5645 5641 5637 5634 5631 5628 5625 5622 5620 5618 5616 5615 5613 5612 5610 5608 5607 5606 5605 5603 5600 5598 5596 5594 5593 5592
5640 5635 5635 5635 5640 5637 5637 5641 5640 5637 5635 5632 5633 5636 5646 5645 5642 5639 5637 5635 5632 5629 5627 5623 5620 5617 5614 5612 5610 5609 5607 5606 5604 5602 5600 5600 5598 5596 5594 5592 5590 5588 5587 5585
5628 5625 5621 5617 5624 5628 5626 5639 5637 5636 5636 5633 5628 5635 5639 5636 5636 5635 5633 5630 5627 5626 5623 5619 5616 5613 5610 5608 5606 5603 5602 5600 5598 5596 5595 5594 5592 5590 5588 5586 5584 5582 5581 5579
5621 5615 5606 5604 5613 5611 5633 5644 5641 5635 5636 5634 5633 5634 5633 5633 5632 5631 5629 5626 5623 5621 5618 5614 5611 5608 5606 5604 5601 5599 5597 5594 5592 5591 5590 5589 5587 5584 5582 5580 5578 5577 5575 5573
5621 5612 5598 5592 5596 5607 5627 5636 5634 5628 5627 5632 5628 5628 5627 5625 5624 5623 5625 5623 5621 5618 5614 5611 5608 5605 5601 5599 5597 5594 5591 5589 5587 5586 5585 5584 5581 5579 5577 5575 5573 5572 5570 5568
5609 5606 5595 5586 5590 5596 5621 5634 5634 5627 5618 5629 5624 5621 5617 5615 5608 5615 5621 5618 5615 5612 5609 5606 5603 5600 5597 5595 5592 5589 5586 5585 5584 5583 5581 5580 5577 5575 5572 5570 5568 5566 5564 5563
5598 5592 5587 5581 5583 5597 5620 5625 5624 5607 5612 5624 5619 5616 5611 5608 5610 5613 5614 5612 5610 5607 5604 5602 5598 5595 5593 5591 5588 5584 5582 5581 5581 5579 5577 5575 5573 5570 5567 5564 5562 5560 5558 5556
5594 5587 5582 5578 5578 5595 5619 5615 5610 5611 5618 5617 5614 5611 5607 5606 5607 5606 5605 5603 5602 5599 5598 5595 5592 5589 5588 5586 5583 5580 5577 5578 5576 5574 5571 5570 5568 5565 5563 5559 5556 5553 5551 5548
5591 5594 5590 5591 5599 5610 5611 5611 5614 5612 5610 5611 5608 5607 5603 5601 5600 5599 5597 5595 5594 5593 5591 5589 5586 5583 5582 5580 5578 5575 5575 5573 5570 5567 5565 5564 5562 5560 5557 5554 5550 5547 5544 5541
5588 5589 5586 5587 5598 5604 5606 5606 5607 5606 5605 5605 5603 5601 5598 5595 5594 5592 5590 5588 5586 5585 5583 5582 5579 5576 5575 5574 5573 5572 5571 5568 5565 5563 5561 5559 5556 5554 5551 5548 5545 5542 5539 5536
5585 5581 5579 5582 5593 5596 5603 5602 5602 5601 5600 5598 5597 5595 5592 5590 5588 5586 5583 5582 5580 5578 5576 5574 5572 5571 5570 5569 5568 5567 5565 5562 5560 5557 5555 5553 5550 5548 5545 5542 5540 5538 5536 5534
5577 5578 5576 5583 5590 5587 5594 5598 5597 5594 5593 5592 5590 5588 5587 5585 5583 5580 5578 5575 5573 5570 5568 5566 5564 5563 5563 5562 5561 5561 5558 5556 5554 5551 5549 5548 5545 5542 5539 5536 5534 5532 5531 5530